Theta_e
285 279 275 277 279 279 278 276 275 279 282 280 278 279 282 284 284 282 283 283 284 286 288 289 291 291 291 292 291 292 292 293 294 294 295 296 296 298 299 300 303 306 307 308
280 276 280 283 283 280 278 276 276 279 282 280 278 279 283 284 284 283 283 284 285 285 287 289 289 289 289 289 290 291 292 294 294 295 296 298 298 299 300 301 301 303 305 306
279 280 284 283 280 280 278 277 275 276 279 280 277 276 281 283 283 284 285 286 286 286 286 287 287 288 288 288 289 291 293 294 294 295 296 296 297 297 296 296 297 299 301 302
278 281 282 279 280 280 276 280 279 278 275 272 277 273 276 281 281 283 285 284 284 286 287 287 287 287 288 289 289 291 293 294 295 295 294 293 292 291 293 294 297 298 300 300
277 277 278 279 279 281 278 280 278 278 274 273 273 271 276 279 279 281 283 284 285 286 286 286 287 288 289 290 289 290 291 293 294 294 293 292 292 293 293 294 295 296 298 300
278 282 281 279 282 281 282 279 278 276 273 268 274 272 275 278 281 281 283 284 285 284 286 286 287 289 288 289 289 290 291 292 293 293 292 292 291 291 291 292 292 294 295 297
277 277 279 281 277 280 279 276 271 270 269 271 274 273 278 281 282 283 283 284 284 284 285 285 286 287 287 287 288 289 290 290 292 292 293 293 291 291 291 291 292 292 293 295
274 273 278 280 277 275 276 275 272 267 270 272 275 273 279 283 284 285 285 284 283 285 286 285 286 286 286 287 287 288 288 289 290 292 292 292 292 292 292 292 292 292 294 294
271 275 278 280 280 278 276 272 276 271 269 268 273 276 282 283 284 282 282 282 283 284 285 285 286 286 286 286 286 287 287 290 291 291 291 291 292 292 291 292 292 292 294 295
276 272 277 278 279 279 277 280 273 271 264 263 273 275 278 280 281 282 281 282 284 284 285 285 286 286 286 286 286 287 288 289 290 291 290 289 289 290 291 293 293 293 294 296
270 274 275 276 273 275 274 272 272 272 272 268 268 272 280 281 282 282 282 283 283 284 284 285 285 285 285 286 285 286 288 288 289 289 288 289 289 289 291 292 293 294 294 294
277 271 271 273 276 278 277 276 275 269 268 270 272 271 283 282 283 282 283 283 283 285 284 284 284 284 285 285 286 287 288 287 288 288 288 289 289 289 290 291 291 292 292 293
276 270 265 271 273 275 270 276 278 275 274 268 267 274 282 281 281 282 282 282 283 284 283 284 284 284 284 284 286 286 287 287 288 288 287 288 288 289 289 289 290 291 291 291
282 274 272 271 272 271 267 269 275 271 266 271 273 278 283 284 283 285 284 282 283 283 283 283 282 283 283 285 285 285 286 287 286 286 286 287 287 288 288 289 289 289 289 289
275 267 269 272 274 272 272 270 273 272 276 271 278 276 281 283 282 282 283 283 283 283 283 283 283 283 283 285 284 285 286 285 285 285 285 286 287 287 286 286 287 288 288 288
277 266 268 266 275 274 272 274 275 276 276 276 277 276 283 284 284 283 283 282 282 283 283 283 283 283 285 285 284 284 284 284 284 283 283 285 284 284 284 285 285 286 286 286
275 270 264 264 273 272 268 272 275 275 276 276 273 278 283 282 282 282 282 283 283 283 283 283 283 282 285 283 284 282 283 283 283 282 282 281 282 282 283 284 284 284 284 285
275 272 270 262 264 262 278 278 276 277 279 279 279 281 282 282 282 283 284 283 283 283 283 283 282 283 284 282 282 281 282 282 282 281 281 281 281 281 283 283 283 283 283 283
278 276 271 266 258 271 276 278 275 274 276 281 280 281 282 282 281 283 285 284 283 283 283 283 283 284 282 281 280 280 281 282 281 281 281 281 281 282 282 282 282 282 282 282
279 277 273 263 263 262 275 276 280 277 275 283 282 282 282 281 276 281 283 284 284 284 284 283 282 283 281 280 280 281 282 281 280 281 281 281 282 282 282 282 282 283 282 282
269 271 271 270 268 268 277 278 279 274 281 282 281 282 281 279 283 284 284 283 283 283 283 283 282 282 281 281 281 281 281 280 280 280 280 280 281 282 282 282 283 282 282 281
271 270 268 268 266 264 279 278 277 283 282 282 279 281 281 283 284 284 283 282 283 282 280 281 282 282 282 279 280 280 280 281 276 277 278 278 279 282 282 282 282 282 281 280
273 276 271 273 273 279 281 281 283 282 282 282 282 283 283 283 283 283 283 281 280 281 281 281 282 278 274 274 275 280 281 280 275 275 278 278 279 281 281 281 281 281 281 280
274 279 275 275 280 278 280 283 284 283 282 283 282 282 282 283 283 282 282 280 281 280 280 280 280 280 276 276 278 280 280 274 270 271 276 278 282 281 282 282 282 282 281 280
280 278 277 276 281 281 281 282 284 285 282 282 282 282 282 282 282 282 281 282 282 282 280 279 281 279 279 277 276 274 274 272 281 274 271 274 275 277 281 283 283 283 284 283
280 278 277 279 282 285 287 286 286 283 284 284 283 282 282 283 283 283 281 283 281 281 281 280 280 279 279 278 278 277 275 275 275 280 273 273 276 275 277 280 282 286 286 286
Wind_Speed
6 11 4 2 3 3 3 2 3 5 2 7 4 15 19 10 8 8 8 7 6 8 7 4 5 6 6 6 7 8 7 8 4 3 5 7 6 5 6 5 9 9 8 8
9 5 3 1 2 1 2 0 4 7 3 5 8 20 18 11 10 9 9 8 8 6 6 6 6 5 6 6 7 8 7 7 5 4 4 4 4 7 6 7 8 8 9 9
6 3 1 1 4 5 2 1 1 5 9 5 8 9 6 3 4 5 7 6 6 9 7 7 6 7 6 7 8 7 8 8 7 7 5 5 4 4 4 6 7 8 10 10
6 0 1 1 2 2 1 2 2 5 6 4 5 8 7 4 3 6 8 7 9 9 6 5 8 8 7 9 8 8 8 8 7 7 6 7 10 11 8 9 9 10 10 11
2 2 1 1 2 1 1 2 2 1 2 4 2 3 11 2 5 8 9 9 10 8 6 8 9 8 8 8 8 8 8 8 7 6 7 7 11 9 8 8 11 11 10 11
4 0 2 2 2 3 3 3 2 2 2 3 4 3 9 4 6 4 5 9 8 5 7 8 8 8 8 8 8 7 8 8 7 7 7 10 15 13 9 10 10 10 9 9
2 1 2 1 1 1 3 4 5 7 5 5 3 2 14 5 5 7 7 8 6 6 7 8 10 9 8 9 8 7 8 7 7 7 14 13 11 10 12 13 12 14 11 10
5 5 3 2 2 4 2 4 6 5 3 5 5 9 9 6 7 6 6 6 2 6 8 9 10 9 8 9 9 8 6 6 7 12 12 9 10 8 10 12 12 11 11 12
5 2 1 4 3 1 1 2 2 4 2 3 5 10 12 8 8 1 3 1 6 8 8 8 9 8 9 8 8 6 7 8 12 12 9 11 12 15 14 15 14 12 14 13
4 3 1 1 1 2 1 4 4 3 1 6 6 7 12 5 5 6 6 7 9 7 8 8 8 8 7 7 6 7 7 11 10 10 7 10 15 15 15 14 16 15 15 16
4 5 2 5 5 7 1 1 4 3 4 5 4 9 8 7 7 8 8 8 8 8 8 8 7 7 8 6 5 6 10 9 12 5 10 13 14 15 15 14 14 13 14 15
5 6 4 6 2 3 1 4 6 6 6 4 2 15 6 7 7 7 7 7 8 8 8 8 8 8 7 7 6 8 10 9 9 12 16 14 14 14 13 13 15 14 16 15
5 2 3 7 4 5 2 5 4 3 3 7 6 12 2 3 4 5 7 8 8 8 7 7 7 8 7 7 7 9 8 11 14 13 15 14 14 14 14 15 15 15 16 16
5 2 7 8 7 5 2 4 4 6 4 5 16 23 23 19 14 16 13 8 9 9 7 6 6 7 7 6 7 8 10 12 14 15 15 15 15 15 16 16 16 15 15 16
6 5 2 3 5 5 8 7 9 14 18 11 25 17 24 19 12 8 10 12 12 9 7 7 6 7 7 7 6 7 10 13 14 14 15 14 14 14 15 16 17 16 15 15
2 3 3 5 6 8 11 13 18 24 24 24 29 34 36 29 24 19 17 10 9 8 8 7 6 8 8 7 9 9 11 13 13 15 14 14 14 14 14 15 17 16 15 15
7 6 4 7 4 7 11 21 26 10 10 23 21 33 18 17 12 9 11 8 9 9 8 6 6 7 6 6 7 8 12 12 12 12 12 15 13 14 14 14 15 14 15 14
8 6 3 4 4 5 7 3 8 21 22 24 19 23 16 13 6 7 8 9 10 7 6 5 5 6 6 6 6 6 9 10 11 11 12 13 14 14 14 13 13 13 11 11
6 6 2 3 5 12 9 7 8 11 13 22 29 29 23 8 5 21 11 10 8 6 6 4 2 4 5 6 6 6 7 9 10 11 12 13 14 13 13 13 13 11 11 9
5 4 4 4 4 11 5 3 4 5 16 19 18 20 18 8 3 8 5 6 6 5 5 3 3 2 4 5 4 5 8 9 10 12 12 12 11 12 12 12 12 10 9 9
5 2 15 8 5 16 13 6 6 4 12 1 8 11 10 8 12 4 7 5 5 5 6 4 2 4 4 5 2 5 6 9 9 9 10 9 10 11 10 11 8 9 9 10
13 13 7 6 6 20 10 7 10 9 3 2 4 6 10 14 7 7 7 6 7 7 4 4 4 5 3 5 1 1 4 7 6 7 8 8 8 8 8 10 9 9 8 10
7 13 13 18 18 3 21 11 16 3 3 4 3 6 9 8 8 7 7 7 7 7 6 4 6 4 3 6 4 1 3 6 4 5 9 8 8 9 9 9 10 8 8 8
8 9 7 5 17 19 16 17 11 8 13 10 6 5 5 9 7 8 8 5 5 4 7 5 6 6 5 6 5 5 2 4 3 3 5 7 8 10 11 7 7 8 8 7
9 16 12 12 17 9 11 16 22 20 11 12 11 11 13 9 10 11 7 8 8 7 5 6 8 7 8 7 6 5 4 2 2 3 2 4 4 5 6 8 8 7 9 8
11 13 12 16 9 16 16 18 23 19 22 19 15 13 13 13 15 11 9 11 7 7 6 6 8 7 7 8 7 6 5 4 4 2 2 2 3 3 3 4 5 16 16 17
Wind_Direction
26 63 76 47 48 125 101 49 297 264 38 343 259 281 275 252 263 227 224 237 265 269 256 284 306 311 315 312 323 312 312 301 311 307 313 309 297 292 292 296 303 297 299 304
30 97 192 264 5 47 96 358 309 294 353 346 301 287 284 246 230 192 205 224 248 265 280 284 298 305 301 280 293 300 299 299 294 280 267 251 270 291 274 287 290 287 293 302
102 151 138 26 45 44 26 245 36 241 319 271 293 291 319 357 177 172 197 214 242 239 260 283 283 275 282 292 287 285 283 285 291 291 293 286 276 283 290 288 286 285 286 289
86 2 301 345 77 21 232 54 359 314 18 290 40 282 308 280 217 202 223 237 249 251 269 279 281 287 285 276 281 282 283 285 287 301 297 290 298 295 293 290 288 282 281 285
206 141 144 231 75 43 192 358 249 266 337 354 312 65 270 96 258 245 243 244 236 242 255 272 290 293 279 283 283 280 283 286 291 282 281 292 292 281 283 286 287 278 275 274
113 132 75 170 302 210 295 312 102 38 68 24 256 131 280 207 212 215 215 215 221 284 292 308 302 289 288 294 290 293 289 281 281 289 293 296 291 289 291 293 292 291 283 279
40 87 139 103 101 275 31 47 341 353 5 232 330 318 247 242 220 196 199 230 268 299 312 300 296 300 294 294 294 290 294 302 314 322 313 301 290 291 298 299 292 290 287 284
140 318 177 322 116 169 17 136 150 240 279 283 318 243 254 233 201 201 206 217 265 310 296 294 293 293 297 296 290 299 319 308 314 321 309 307 295 296 297 296 293 286 282 286
117 294 51 37 19 89 172 80 158 98 71 33 234 283 295 238 259 152 207 93 300 293 287 280 292 297 289 290 306 317 317 323 326 316 318 318 318 309 299 292 291 289 285 283
228 49 345 333 14 357 146 166 77 11 357 288 278 270 237 273 236 240 222 252 277 295 301 296 291 290 288 301 313 323 319 315 312 311 327 323 315 305 295 294 294 287 283 284
132 98 297 41 205 178 96 62 44 113 156 194 292 257 222 226 203 203 224 246 278 286 284 283 293 292 290 301 324 321 324 318 320 339 317 315 314 306 299 296 296 306 312 307
199 141 180 226 313 11 316 200 162 134 242 238 179 265 255 253 218 202 243 269 277 273 270 288 297 295 298 319 335 335 320 312 324 314 317 307 304 303 302 308 304 304 297 296
200 297 20 335 353 357 229 210 200 113 93 211 145 259 226 262 246 247 253 266 273 275 292 301 310 303 314 317 327 331 317 322 320 320 315 307 306 305 303 300 298 298 297 294
115 143 185 195 198 131 201 248 203 140 158 189 226 274 272 264 274 283 285 269 296 287 276 295 305 300 308 317 322 321 325 326 327 323 315 312 311 310 308 306 303 297 297 294
123 200 172 266 221 189 205 202 200 210 222 212 267 242 266 273 271 260 286 300 292 284 301 307 302 306 299 313 316 327 329 330 324 319 319 320 317 316 313 309 302 296 294 291
151 245 107 290 279 228 253 222 238 230 234 251 258 275 263 279 281 275 276 270 269 284 282 290 305 305 306 324 328 335 334 324 326 331 325 325 324 317 311 309 306 302 304 303
153 140 103 264 325 321 289 221 218 210 214 225 233 241 274 274 264 260 267 249 256 265 278 286 296 290 298 316 322 343 326 321 331 332 326 325 317 312 312 317 314 317 319 316
144 134 132 240 15 270 262 186 187 214 235 223 246 256 246 248 279 264 250 247 261 258 269 286 284 299 314 313 322 335 319 331 333 331 328 326 323 317 324 331 330 330 333 336
148 138 196 202 195 297 292 208 170 178 256 228 229 244 250 248 343 286 228 224 223 212 243 228 262 288 304 316 322 329 329 336 334 330 332 327 330 333 343 343 341 345 342 350
143 87 162 121 200 240 218 193 151 139 281 228 201 231 236 128 210 259 189 182 204 224 218 223 267 266 305 299 337 349 340 343 344 335 328 319 335 349 354 347 347 351 356 7
133 184 212 202 250 277 237 170 166 122 260 284 194 206 155 184 208 206 169 204 208 211 207 179 226 261 267 284 332 11 339 344 329 322 327 323 345 2 356 348 350 354 6 19
163 164 188 160 194 274 167 86 192 213 265 223 207 214 189 212 229 212 216 235 234 241 220 187 199 238 236 259 205 11 336 327 310 321 342 344 339 9 6 1 358 13 17 28
205 190 179 190 208 198 188 203 216 159 235 260 210 187 213 230 223 216 232 225 232 228 222 192 192 213 238 246 209 18 310 317 324 349 358 0 350 4 13 19 8 8 20 29
254 186 235 100 239 229 217 243 253 216 227 238 244 246 218 232 238 241 244 244 246 223 232 184 176 219 232 225 222 210 238 303 357 32 25 343 17 19 29 22 17 19 17 31
194 159 196 246 254 310 244 223 242 249 224 242 239 222 233 228 236 239 246 244 232 225 212 179 195 206 216 204 222 216 204 152 26 48 8 44 345 12 20 39 36 34 36 40
184 196 191 227 167 215 244 216 226 229 238 234 237 250 236 229 235 238 236 246 223 221 206 196 204 211 206 202 207 206 190 163 148 86 19 4 74 356 38 19 47 52 68 66